Location: Rochester
(43.1610°N, 77.6109°W)
Time: 09:59:50
(UTC-05:00)

CAS-4A - Pass Details

Date: 26 October 2021
Orbit: 529 x 539 km, 43.0° (Epoch: 04 December)

Event Time Altitude Azimuth Distance (km) Brightness Sun altitude
Rises 20:30:49 0° 271° (W) 2,686 ? -26.2°
Reaches altitude 10° 20:35:03 10° 229° (SW) 1,788 ? -27.0°
Maximum altitude 20:35:43 10° 220° (SW) 1,766 ? -27.1°
Drops below altitude 10° 20:36:23 10° 210° (SSW) 1,786 ? -27.2°
Enters shadow 20:36:57 - 203° (SSW) 1,836 ? -27.3°
